Find Starlink 6336

NORAD ID: 56788 Int'l Des: 2023-078 Owner: SPXS Country: US Constellation: starlink operational
LEOCIRCULAR

Live-Position

3D-Globus wird geladen...

Über Starlink 6336

Beschreibung wird geladen...

Nächste Überflüge

Passes for default location (London). Set your location on the main map for personalized predictions.

Höhenverlauf

Loading altitude history...

Zweizeiliger Elementsatz

1 56788U 23078X 26124.50687177 .00000959 00000-0 88145-4 0 9993
2 56788 69.9998 183.7512 0003663 270.1121 89.9618 14.98325698161537
Epoch: 4. Mai 2026 • Age: 19 hours

Aktueller Status

Höhe 584.3 km
Geschwindigkeit 7.57 km/s
Subsatellitenpunkt -37.90°S, 165.96°W
Startdatum 31. Mai 2023
Alter 2.9 years
Typ internet

Technische Details

Klassifizierung Payload
Masse 305.00 kg
Trockenmasse 290.00 kg
Gesamtmasse 305.00 kg
Länge 0.20 m
Durchmesser 2.80 m
Spannweite 9.00 m
Form Box + pan
Hersteller SPXS
Bus-Typ Starlink
Phasenstatus In Orbit
Besitzer/Staat SPXS/US

Most Searched